This is the latest recevied weather packets stored in our database for station/object KE8WMS. If no packets are shown the sender has not sent any weather packets the latest 10 day(s).
| Time | Temp. | Humidity | Pressure | Rain* | Wind** | Luminosity | Snow |
|---|---|---|---|---|---|---|---|
| 1777924315 | 23.33° C | 47% | 1001.1 hPa | 0 mm | - | 581 W/m² | - |
| 1777924012 | 23.89° C | 47% | 1001.1 hPa | 0 mm | - | 598 W/m² | - |
| 1777923708 | 23.89° C | 45% | 1001.4 hPa | 0 mm | - | 601 W/m² | - |
| 1777923404 | 23.33° C | 48% | 1001.4 hPa | 0 mm | - | 616 W/m² | - |
| 1777923103 | 23.89° C | 45% | 1001.4 hPa | 0 mm | - | 626 W/m² | - |
| 1777922800 | 23.33° C | 46% | 1001.3 hPa | 0 mm | - | 635 W/m² | - |
| 1777922498 | 23.33° C | 47% | 1001.3 hPa | 0 mm | - | 650 W/m² | - |
| 1777922196 | 23.33° C | 48% | 1001.6 hPa | 0 mm | - | 653 W/m² | - |
| 1777921892 | 23.33° C | 49% | 1001.4 hPa | 0 mm | - | 668 W/m² | - |
| 1777921588 | 22.78° C | 47% | 1001.3 hPa | 0 mm | - | 676 W/m² | - |
| 1777921285 | 22.78° C | 47% | 1001.9 hPa | 0 mm | - | 686 W/m² | - |
| 1777920981 | 22.78° C | 47% | 1002.1 hPa | 0 mm | - | 688 W/m² | - |
| 1777920678 | 22.78° C | 48% | 1002 hPa | 0 mm | - | 698 W/m² | - |
| 1777920374 | 23.33° C | 45% | 1002 hPa | 0 mm | - | 702 W/m² | - |
| 1777920069 | 23.33° C | 48% | 1002.1 hPa | 0 mm | - | 695 W/m² | - |
| 1777919767 | 22.78° C | 50% | 1001.8 hPa | 0 mm | - | 715 W/m² | - |
| 1777919465 | 23.33° C | 47% | 1001.8 hPa | 0 mm | - | 721 W/m² | - |
| 1777919161 | 23.33° C | 44% | 1002.2 hPa | 0 mm | - | 734 W/m² | - |
| 1777918859 | 22.78° C | 43% | 1002.3 hPa | 0 mm | - | 736 W/m² | - |
| 1777918556 | 22.78° C | 49% | 1002.2 hPa | 0 mm | - | 733 W/m² | - |
| 1777918254 | 23.33° C | 46% | 1002.3 hPa | 0 mm | - | 744 W/m² | - |
| 1777917953 | 22.22° C | 48% | 1002.4 hPa | 0 mm | - | 745 W/m² | - |
| 1777917651 | 22.22° C | 46% | 1002.3 hPa | 0 mm | - | 750 W/m² | - |
| 1777917348 | 22.22° C | 48% | 1002.2 hPa | 0 mm | - | 750 W/m² | - |
| 1777917045 | 22.78° C | 49% | 1002.5 hPa | 0 mm | - | 756 W/m² | - |
* Rain latest hour (hover to see other rain measurements)
** Current wind speed in m/s (hover to see current wind gust speed)